Location: Unspecified
(0.0000°N, 0.0000°E)
Time: 09:05:45
(UTC+00:00)

Vanguard 1 Rocket - Pass Details

Date: 12 December 2017
Orbit: 656 x 4222 km, 34.3° (Epoch: 14 January)

Event Time Altitude Azimuth Distance (km) Brightness Sun altitude
Rises 14:08:51 0° 246° (WSW) 3,054 10.7 49.9°
Reaches altitude 10° 14:10:55 10° 252° (WSW) 2,254 10.3 49.5°
Maximum altitude 14:15:47 51° 328° (NNW) 1,194 8.6 48.5°
Drops below altitude 10° 14:23:47 10° 42° (NE) 3,648 10.2 46.9°
Sets 14:28:03 0° 47° (NE) 5,193 10.8 46.0°
